Regional Weather Roundup
Issued by NWS

Home | Current Version | Previous Version | Graphics & Text | Print | Product List | Glossary On
Versions: 1 2 3 4 5 6 7 8 9 10 11 12 13 14 15 16 17 18 19 20 21 22 23 24 25 26 27 28 29 30 31 32 33 34 35 36 37 38 39 40 41 42 43 44 45 46 47 48 49 50
000
ASUS43 KMKX 242300
RWRWI

WISCONSIN REGIONAL WEATHER ROUNDUP
NATIONAL WEATHER SERVICE MILWAUKEE/SULLIVAN WI
600 PM CDT SUN SEP 24 2017

NOTE: "FAIR" INDICATES FEW OR NO CLOUDS BELOW 12,000 FEET WITH NO
SIGNIFICANT WEATHER AND/OR OBSTRUCTIONS TO VISIBILITY.

WIZ001-002-006>008-014>016-023>028-250000-
NORTHWEST WISCONSIN

CITY           SKY/WX    TMP DP  RH WIND       PRES   REMARKS
SUPERIOR ARPT  PTCLDY    65  63  95 NE9       29.84F
ASHLAND        CLEAR     82  62  50 S6        29.87F HX  83
HAYWARD        CLEAR     81  64  56 S5        29.90S HX  82
SIREN          CLOUDY    84  63  48 S13       29.86F HX  85
CUMBERLAND     CLEAR     81  61  50 S10       29.89F HX  81
RICE LAKE      CLEAR     84  62  47 SE9       29.91S HX  85
CHETEK         CLEAR     83  66  56 MISG      29.91S HX  85
LADYSMITH      CLEAR     83  62  49 S7        29.95S HX  84
EAU CLAIRE     NOT AVBL
MENOMONIE      CLEAR     85  64  48 SE7       29.90S HX  86
NEW RICHMOND   SUNNY     85  59  40 S8        29.87S HX  85
OSCEOLA        SUNNY    N/A N/A N/A S10       29.88S
$$

WIZ003>005-009-010-017-018-250000-
NORTH CENTRAL WISCONSIN

CITY           SKY/WX    TMP DP  RH WIND       PRES   REMARKS
MANITOWISH WTR NOT AVBL
ARBOR VITAE    CLEAR     82  61  48 S8        29.98S HX  83
WOODRUFF       CLEAR     82  61  48 S8        29.98S HX  83
RHINELANDER    CLEAR     82  59  45 S8        30.00S HX  82
EAGLE RIVER    CLEAR     82  55  39 S3        29.98S HX  82
LAND O LAKES   CLEAR     83  58  41 S6        30.00S HX  83
PHILLIPS       PTCLDY    82  59  46 SW6       29.95F HX  82
TOMAHAWK       CLEAR     82  56  41 S3        29.98S HX  81
MEDFORD        CLEAR     82  59  44 S8        29.97F HX  82
MERRILL        CLEAR     85  59  41 S10       29.98S HX  84
$$

WIZ029-030-035-036-043>047-250000-
CENTRAL WISCONSIN

CITY           SKY/WX    TMP DP  RH WIND       PRES   REMARKS
WAUSAU         CLEAR     83  59  44 S9        29.96F HX  83
MOSINEE        PTCLDY    81  61  50 S8        29.99S HX  81
MARSHFIELD     CLEAR     82  59  45 S8        29.96F HX  82
STEVENS POINT  CLEAR     83  59  42 S7        29.99S HX  83
WAUPACA        CLEAR     87  62  42 SE6       29.99S HX  87
WAUTOMA        CLEAR     85  61  44 S5        29.98S HX  85
WISC RAPIDS    CLEAR     85  60  42 S7        29.98S HX  85
CAMP DOUGLAS   NOT AVBL
$$

WIZ011>013-019>022-031-037>040-048>050-250000-
NORTHEAST WISCONSIN

CITY           SKY/WX    TMP DP  RH WIND       PRES   REMARKS
ANTIGO         CLEAR     81  63  53 S9        30.01F HX  82
SHAWANO        CLEAR     87  62  42 S3        29.98S HX  88
OCONTO         MOCLDY    82  67  59 S7        29.99R HX  84
STURGEON BAY   CLEAR     77  64  64 S9        30.02R
GREEN BAY      CLEAR     84  69  60 SE10      29.99S HX  88
MANITOWOC      CLEAR     76  66  71 S9        30.02S
APPLETON       PTCLDY    84  57  39 SW8       29.99S HX  83
CLINTONVILLE   CLEAR     86  57  37 S7        29.98F HX  85
OSHKOSH        CLEAR     83  65  54 S8        29.99S HX  85
$$

WIZ032>034-041-042-053>061-250000-
SOUTHWEST WISCONSIN

CITY           SKY/WX    TMP DP  RH WIND       PRES   REMARKS
LA CROSSE      CLEAR     89  62  40 SE12      29.91S HX  89
SPARTA         CLEAR     86  60  41 S6        29.95S HX  86
VIROQUA        CLEAR     85  62  46 SE10      29.97F HX  85
BOSCOBEL       CLEAR     88  62  41 S5        29.95R HX  88
PRAIRIE DU CHI CLEAR     88  58  36 SE7       29.93S HX  86
PLATTEVILLE    CLEAR     86  61  42 S9        29.99S HX  86
$$

WIZ056-057-062-063-064-067-068-250000-
SOUTH CENTRAL WISCONSIN

CITY           SKY/WX    TMP DP  RH WIND       PRES   REMARKS
REEDSBURG      CLEAR     86  60  41 S7        29.97S HX  86
BARABOO/DELLS  CLEAR     85  55  35 SW8       29.98S HX  84
LONE ROCK      NOT AVBL
MINERAL POINT  CLEAR     86  55  35 S7        30.00S HX  84
MADISON        PTCLDY    86  58  38 S9        29.98S HX  85
MIDDLETON      CLEAR     88  54  31 SW10      30.00S HX  86
WATERTOWN      CLEAR     86  60  41 S7        29.99F HX  86
MONROE         CLEAR     86  55  35 S9        30.00S HX  84
JANESVILLE     PTCLDY    90  55  31 S10       29.99S HX  88
$$

WIZ051-052-058>065-066-070>072-250000-
SOUTHEAST WISCONSIN

CITY           SKY/WX    TMP DP  RH WIND       PRES   REMARKS
MILWAUKEE      PTCLDY    83  62  49 SE10      30.01S HX  84
WAUKESHA       PTCLDY    82  61  47 SE12      30.02S HX  83
MILWAUKEE/TIMM CLEAR     84  54  34 SE10      30.02R HX  83
RACINE         CLEAR     82  60  47 SE7       30.03F HX  82
BURLINGTON     CLEAR     84  62  47 E8        30.01S HX  85
KENOSHA        CLEAR     83  59  44 SE9       30.02S HX  83
FOND DU LAC    CLEAR     83  62  49 S6        30.00S HX  84
SHEBOYGAN      CLEAR     79  66  64 S6        30.01F HX  81
WEST BEND        N/A     82  59  44 SE9G16    30.01S HX  82
JUNEAU         CLEAR     84  61  45 S7        30.01F HX  85
$$

LSZ147-162-250000-
LAKE SUPERIOR

STATION/POSITION TIME  TEMP    WIND        PRES    WAVE
                       AIR SEA DIR/SP/G            HT/PER
                 (UTC) (F)     (DEG/KT/KT) (MB)    (FT/S)
W MID LAKE BUOY  2150   65 58   70/  4/  4 1011.6F   0
DEVILS ISLAND    2200   67      80/  8/  9 1011.4F
SAXON HARBOR     2230   85     200/  5/ 13 1011.2F
$$

LMZ867-665-643>646-250000-
LAKE MICHIGAN

STATION/POSITION TIME  TEMP    WIND        PRES    WAVE
                       AIR SEA DIR/SP/G            HT/PER
                 (UTC) (F)     (DEG/KT/KT) (MB)    (FT/S)
S GREEN BAY BUOY 2200   80 70  160/  8/ 12 1015.2
N MID LAKE BUOY  2150   70 67  200/  6/  8 1016.8F   1/ 3
NORTHPORT PIER   2240   76     160/  5/  9 1015.9S
KEWAUNEE LAKESHO 2230   67     180/  8/  9 1015.7F
SHEBOYGAN LAKESH 2200   72     160/  7/  8 1015.9F
PORT WASHINGTON  2230   78     190/  6/  9 1016.9S
ATWATER BUOY     2109   70 65  190/  6/  6 1016.6S
MILWAUKEE LAKESH 2230   70     160/  9/  9   N/A
S MID LAKE BUOY  2150   75 72  120/  2/  4 1016.8F   0
KENOSHA   LAKESH 2200   78     140/  8/ 13 1015.9
$$

TC  - TEMPERATURE IN CELSIUS
VSB - VISIBILITY IN STATUTE MILES
WCI - WIND CHILL INDEX
HX  - HEAT INDEX





USA.gov is the U.S. government's official web portal to all federal, state and local government web resources and services.